Flag for Bermuda Weather past 2 weeks in Hamilton, Bermuda

Now
61 °F

Mostly cloudy.


Feels Like: 61 °F
Forecast: 59 / 67 °F
Wind: 20 mph from Northeast

Location: Bermuda

Current Time: Mar 3, 2015 at 9:20:15 AM

Latest Report: Mar 3, 2015 at 8:55 AM


Visibility: N/A

Pressure: 30.24 "Hg

Humidity: 68%

Dew point: 50 °F

Location of HamiltonLocation

Historic Weather in Hamilton — Graph

°F

Hamilton temperature yesterday

Maximum temperature yesterday: 70 °F (at 10:59 AM)
Minimum temperature yesterday: 61 °F (at 1:55 AM)
Average temperature yesterday: 67 °F

Past Weeks' High & Low Weather Summary

 TemperatureHumidityPressure
High73 °F (Feb 27, 10:55 AM)94% (Feb 18, 10:55 PM)30.51 "Hg (Feb 18, 10:55 PM)
Low54 °F (Feb 16, 7:55 AM)51% (Feb 21, 1:55 PM)29.71 "Hg (Feb 25, 5:55 AM)
Average65 °F78%30.14 "Hg
* Reported Feb 16 7:55 AM — Mar 3 7:55 AM, Hamilton, Weather by CustomWeather, © 2015

Note: Actual official high and low records may vary slightly from our data, if they occured in-between our weather recording intervals... More about our weather records

Advertising

Hamilton weather history for previous 24 hours

 ConditionsComfort  
Time TempWeatherWind HumidityBarometerVisibility
7:55 AM
Tue, Mar 3
61 °FMostly cloudy.18 mph72%30.18 "HgN/A
6:55 AM61 °FScattered showers. Mostly cloudy.21 mph83%30.15 "HgN/A
5:55 AM63 °FMostly cloudy.18 mph83%30.12 "HgN/A
4:55 AM63 °FMostly cloudy.17 mph88%30.09 "HgN/A
3:55 AM64 °FSprinkles. Mostly cloudy.17 mph88%30.07 "Hg4 mi
2:55 AM64 °FPartly cloudy.16 mph88%30.07 "HgN/A
1:55 AM66 °FPassing clouds.14 mph88%30.07 "HgN/A
12:55 AM66 °FSprinkles. Partly cloudy.17 mph88%30.07 "HgN/A
11:55 PM
Mon, Mar 2
68 °FScattered showers. Partly cloudy.17 mph88%30.09 "HgN/A
10:55 PM68 °FMostly cloudy.16 mph83%30.09 "HgN/A
9:55 PM68 °FPartly cloudy.17 mph83%30.09 "HgN/A
8:55 PM68 °FPartly cloudy.15 mph83%30.12 "HgN/A
7:55 PM68 °FPartly cloudy.16 mph83%30.12 "HgN/A
6:55 PM68 °FPartly cloudy.15 mph78%30.15 "HgN/A
5:55 PM68 °FCloudy.15 mph83%30.12 "HgN/A
4:55 PM68 °FCloudy.15 mph83%30.12 "HgN/A
3:55 PM68 °FBroken clouds.14 mph83%30.15 "HgN/A
2:55 PM70 °FPartly sunny.13 mph78%30.15 "HgN/A
1:55 PM70 °FPartly sunny.15 mph78%30.18 "HgN/A
12:55 PM70 °FPartly sunny.13 mph78%30.21 "HgN/A
11:55 AM70 °FPartly sunny.10 mph73%30.27 "HgN/A
10:59 AM70 °FPartly sunny.7 mph73%30.30 "HgN/A
9:55 AM68 °FPassing clouds.7 mph73%30.33 "HgN/A
Weather by CustomWeather, © 2015

See weather overviewHow to use our weather pages